This demonstration page uses our WeatherBlox Daily Observations layout. Learn more.

30.00354, -91.81873

Hourly Observations for October 31, 2020

Temp ( °F °C ) Dew Point ( °F °C ) Humidity (%) Winds ( mph kmh ) Pressure ( in mb ) Visibility ( mi km ) Precip ( " mm )
12:53 am 00:53 Clear 51 10.6 48 8.9 89 89 NNE 7 11 30.23 1024 10 16.0934 0 0
1:53 am 01:53 Clear 50 10 48 8.9 93 93 NNE 5 7 30.23 1024 10 16.0934 0 0
2:53 am 02:53 Clear 48 8.9 46 7.8 93 93 NNE 5 7 30.22 1024 10 16.0934 0 0
3:53 am 03:53 Clear 50 10 47 8.3 89 89 NE 6 9 30.23 1024 10 16.0934 0 0
4:53 am 04:53 Clear 50 10 48 8.9 93 93 NE 7 11 30.22 1024 10 16.0934 0 0
5:53 am 05:53 Clear 48 8.9 47 8.3 96 96 N 3 6 30.24 1024 10 16.0934 0 0
6:53 am 06:53 Clear 48 8.9 47 8.3 96 96 NE 5 7 30.24 1024 10 16.0934 0 0
7:53 am 07:53 Sunny 48 8.9 47 8.3 96 96 ESE 3 6 30.24 1024 9 14.48406 0 0
8:53 am 08:53 Sunny 52 11.1 49 9.4 89 89 E 3 6 30.25 1024 10 16.0934 0 0
9:53 am 09:53 Sunny 54 12.2 52 11.1 93 93 SSE 3 6 30.26 1025 10 16.0934 0 0
10:53 am 10:53 Sunny 61 16.1 50 10 67 67 Calm 30.26 1025 10 16.0934 0 0
11:53 am 11:53 Sunny 65 18.3 51 10.6 61 61 VRB 5 7 30.24 1024 10 16.0934 0 0
12:53 pm 12:53 Sunny 68 20 50 10 53 53 W 5 7 30.22 1023 10 16.0934 0 0
1:53 pm 13:53 Sunny 71 21.7 49 9.4 46 46 undefined N/A 30.18 1022 10 16.0934 0 0
2:53 pm 14:53 Sunny 71 21.7 48 8.9 44 44 NW 6 9 30.16 1021 10 16.0934 0 0
3:53 pm 15:53 Sunny 73 22.8 49 9.4 43 43 VRB 5 7 30.14 1021 10 16.0934 0 0
4:53 pm 16:53 Sunny 72 22.2 49 9.4 44 44 ENE 8 13 30.14 1021 10 16.0934 0 0
5:53 pm 17:53 Sunny 68 20 50 10 53 53 NNE 3 6 30.14 1021 10 16.0934 0 0
6:53 pm 18:53 Clear 62 16.7 51 10.6 67 67 Calm 30.14 1021 10 16.0934 0 0
7:53 pm 19:53 Clear 57 13.9 53 11.7 87 87 SSW 6 9 30.16 1022 10 16.0934 0 0
8:53 pm 20:53 Clear 57 13.9 54 12.2 90 90 Calm 30.17 1022 9 14.48406 0 0
9:53 pm 21:53 Clear with Mist and Fog 55 12.8 55 12.8 100 100 Calm 30.19 1022 3 4.82802 0 0
10:53 pm 22:53 Clear 53 11.7 51 10.6 93 93 Calm 30.21 1023 7 11.26538 0 0
11:41 pm 23:41 Clear with Mist and Fog 51 10.6 50 10 96 96 Calm 30.2 1023 2 3.21868 0 0
11:48 pm 23:48 Clear with Mist and Fog 52 11 52 11 100 100 Calm 30.2 1023 1.25 2.011675 0 0
11:53 pm 23:53 Clear with Mist and Fog 53 11.7 53 11.7 100 100 Calm 30.2 1023 1.75 2.816345 0 0

Powered by AerisWeather